Location: Chervonnoye
(48.6000°N, 34.4000°E)
Time: 22:24:20
(UTC+00:00)

RS-44 - Pass Details

Date: 05 December 2022
Orbit: 1174 x 1511 km, 82.5° (Epoch: 01 February)

Event Time Altitude Azimuth Distance (km) Brightness Sun altitude
Exits shadow 00:45:16 40° 26° (NNE) 2,046 ? -43.9°
Drops below altitude 10° 00:50:33 10° 14° (NNE) 3,656 ? -43.1°
Sets 00:53:32 0° 12° (NNE) 4,656 ? -42.6°
